Regional Weather Roundup
Issued by NWS

Home | Current Version | Previous Version | Graphics & Text | Print | Product List | Glossary On
Versions: 1 2 3 4 5 6 7 8 9 10 11 12 13 14 15 16 17 18 19 20 21 22 23 24 25 26 27 28 29 30 31 32 33 34 35 36 37 38 39 40 41 42 43 44 45 46 47 48 49 50
000
ASUS43 KMPX 210901
RWRMN
WEATHER ROUNDUP FOR MINNESOTA
NATIONAL WEATHER SERVICE TWIN CITIES/CHANHASSEN MN
300 AM CST SUN DEC 21 2014


NOTE: "FAIR" INDICATES FEW OR NO CLOUDS BELOW 12,000 FEET WITH NO
SIGNIFICANT WEATHER AND/OR OBSTRUCTIONS TO VISIBILITY. N/A MEANS
CURRENT SKY AND/OR WEATHER CONDITIONS ARE NOT AVAILABLE.

MNZ060>063-068>070-211000-
   Twin Cities Metro

CITY           SKY/WX    TMP DP  RH WIND       PRES   REMARKS
TWIN CITIES    CLOUDY    31  28  89 SE9       30.02F FOG     WCI  23
ST PAUL        CLOUDY    32  29  88 SE8       30.04F WCI  25
CRYSTAL        CLOUDY    32  29  88 SE9       30.00F FOG     WCI  24
BLAINE         CLOUDY    34  32  93 SE8       30.01F WCI  27
LAKEVILLE      CLOUDY    30  30 100 SE5       30.02F FOG     WCI  25
EDEN PRAIRIE   CLOUDY    32  29  88 SE10      29.99F FOG     WCI  24
SOUTH ST PAUL  CLOUDY    32  29  90 SE6       30.03F WCI  26
LAKE ELMO      CLOUDY    32  30  93 SE8       30.03F WCI  25
$$
MNZ001>005-007-008-013>017-022>024-027-028-211000-
   Northwest Minnesota

CITY           SKY/WX    TMP DP  RH WIND       PRES   REMARKS
BEMIDJI        CLOUDY    28  27  96 S16       29.85F FOG     WCI  16
HALLOCK        CLOUDY    32  30  93 CALM      29.77F FOG
ROSEAU         CLOUDY    30  27  86 S12       29.81F FOG     WCI  21
WARROAD        CLOUDY    30  27  86 S9        29.82F FOG     WCI  22
THIEF RVR FALL CLOUDY    30  28  93 S15       29.81F WCI  19
CROOKSTON      CLOUDY    30  30 100 S21       29.82S FOG     WCI  17
FOSSTON        CLOUDY    27  27 100 S17       29.83F FOG     WCI  14
DETROIT LAKES  CLOUDY    30  30 100 S16       29.85F FOG     WCI  19
MOORHEAD       CLOUDY    32  32 100 S14       29.85F FOG     WCI  22
PARK RAPIDS    CLOUDY    29  28  96 S16       29.86F FOG     WCI  17
MAHNOMEN       CLOUDY    29  28  94 S14       29.85S WCI  18
$$
MNZ006-009>011-018-025>026-211000-
   North Central Minnesota

CITY           SKY/WX    TMP DP  RH WIND       PRES   REMARKS
BAUDETTE       CLOUDY    29  26  89 S8        29.84F WCI  21
FLAG ISLAND    LGT SNOW  28  28 100 SE17      29.81F WCI  16
INTL FALLS     LGT SNOW  28  26  92 SE8       29.89F VSB 3/4 WCI  20
WASKISH        CLOUDY    28  27  93 CALM      29.86F
BIG FORK       LGT SNOW  28  27  93 S9        29.90F WCI  20
LONGVILLE      CLOUDY    28  27  93 S8G17     29.90F FOG     WCI  20
GRAND RAPIDS   CLOUDY    27  25  93 S14G23    29.91F WCI  15
CRANE LAKE     CLOUDY    28  27  93 S3        29.95F FOG
ORR            CLOUDY    27  25  93 S7        29.90F FOG     WCI  19
COOK           CLOUDY    28  27  93 S9        29.94F WCI  20
WALKER         CLOUDY    27  26  96 SE6       29.88F FOG     WCI  21
$$
MNZ012-019>021-037-211000-
   Northeast Minnesota

CITY           SKY/WX    TMP DP  RH WIND       PRES   REMARKS
DULUTH         LGT SNOW  29  26  89 S13       29.97F FOG     WCI  19
ELY            CLOUDY    28  27  93 S5G21     29.95F WCI  23
HIBBING        CLOUDY    29  25  85 S9        29.94F WCI  20
EVELETH        CLOUDY    30  30 100 S12       29.96F FOG     WCI  21
DULUTH HARBOR  CLOUDY    34  28  80 S13       30.03F WCI  25
SILVER BAY     CLOUDY    32  27  80 S12G17    29.99F WCI  23
GRAND MARAIS     N/A     34  28  79 S17       30.05F WCI  23
G MARAIS ARPRT CLOUDY    27  23  86 S8        29.99F FOG     WCI  18
$$
MNZ029>031-032-039>041-046>048-054>057-064-211000-
   West Central Minnesota

CITY           SKY/WX    TMP DP  RH WIND       PRES   REMARKS
FERGUS FALLS   CLOUDY    30  28  93 S14G21    29.89F FOG     WCI  20
WHEATON        CLOUDY    28  27  93 S9        29.88F FOG     WCI  20
MORRIS         CLOUDY    30  30 100 S13       29.88F FOG     WCI  20
ALEXANDRIA     CLOUDY    30  28  92 S16       29.89F FOG     WCI  19
ELBOW LAKE     CLOUDY    30  29  98 S18G24    29.86F FOG     WCI  17
WADENA         CLOUDY    28  27  93 S15       29.87F FOG     WCI  17
GLENWOOD       CLOUDY    30  28  93 S13G21    29.90F FOG     WCI  20
APPLETON       CLOUDY    32  30  93 S7G18     29.90S WCI  26
BENSON         CLOUDY    32  28  86 S12       29.90F WCI  23
ORTONVILLE     CLOUDY    30  27  86 S8        29.88F FOG     WCI  23
MADISON        PTCLDY    36  34  93 S10       29.89S FOG
WILLMAR        CLOUDY    32  30  93 S9G17     29.93F FOG     WCI  24
$$
MNZ033>034-036-042>043-049>051-058-059-211000-
   Central Minnesota

CITY           SKY/WX    TMP DP  RH WIND       PRES   REMARKS
ST CLOUD       CLOUDY    32  28  85 S13       29.95F FOG     WCI  22
SAUK CENTRE    CLOUDY    30  29  96 S14       29.91F FOG     WCI  19
PAYNESVILLE    CLOUDY    29  28  99 E14       29.93F FOG     WCI  18
AITKIN         CLOUDY    30  27  86 S12G17    29.93F HAZE    WCI  21
PINE RIVER     CLOUDY    28  28 100 S9G16     29.94F FOG     WCI  20
BRAINERD       CLOUDY    29  27  92 S15       29.93F FOG     WCI  18
STAPLES        CLOUDY    28  28 100 S12       29.89F FOG     WCI  18
LONG PRAIRIE   CLOUDY    30  28  93 SE17      29.91F FOG     WCI  18
LITTLE FALLS   CLOUDY    30  28  93 SE8       29.94F FOG     WCI  23
LITCHFIELD     CLOUDY    34  32  93 SE8       29.95F FOG     WCI  27
BUFFALO        CLOUDY    31  29  92 SE7       29.99F FOG     WCI  24
MAPLE LAKE     CLOUDY    32  31  96 SE9       29.98F FOG     WCI  24
$$
MNZ037-044-045-052-053-211000-
   East Central Minnesota

CITY           SKY/WX    TMP DP  RH WIND       PRES   REMARKS
PRINCETON      CLOUDY    32  28  86 SE9       29.98F WCI  24
MORA           CLOUDY    32  28  86 S6        30.02S WCI  26
CAMBRIDGE      CLOUDY    34  25  69 SE6       29.98F WCI  29
RUSH CITY      CLOUDY    31  28  87 SE8       30.01F WCI  23
MOOSE LAKE     CLOUDY    30  28  93 S6        29.97F WCI  24
HINCKLEY       CLOUDY    32  28  86 SE6       30.01S WCI  26
CLOQUET        CLOUDY    28  27  93 S8        29.98F WCI  20
MCGREGOR       CLOUDY    30  28  93 S16       29.96F WCI  19
$$
MNZ071>073-080-081-089-090-097-098-211000-
   Southwest Minnesota

CITY           SKY/WX    TMP DP  RH WIND       PRES   REMARKS
MONTEVIDEO     CLOUDY    30  30 100 SW12      29.91F WCI  21
GRANITE FALLS  CLOUDY    32  30  94 SE12G17   29.93S WCI  23
CANBY          CLOUDY    31  30  95 S8        29.89F FOG     WCI  24
MARSHALL       CLOUDY    30  27  86 S12       29.90F WCI  21
REDWOOD FALLS  CLOUDY    32  30  92 S12       29.93F WCI  23
OLIVIA         CLOUDY    32  32 100 S12G17    29.93F WCI  23
PIPESTONE      SNOW      30  30 100 S5        29.87F VSB 1/4 WCI  25
WINDOM         CLOUDY    30  30 100 S9        29.92F FOG     WCI  22
WORTHINGTON    CLOUDY    30  28  93 S12       29.91F WCI  21
JACKSON        CLOUDY    32  30  93 S12       29.93F FOG     WCI  23
TRACY          CLOUDY    32  31  96 S13G20    29.90F FOG     WCI  22
SLAYTON        FOG       30  30 100 S5        29.91S VSB 1   WCI  25
$$
MNZ065>067-074>077-082>085-091>093-211000-
   South Central Minnesota

CITY           SKY/WX    TMP DP  RH WIND       PRES   REMARKS
MANKATO        CLOUDY    34  28  80 S12       29.98F WCI  25
NEW ULM        CLOUDY    32  32 100 S10       29.95F FOG     WCI  24
ST JAMES       CLOUDY    34  32  93 SE13      29.96F FOG     WCI  25
FAIRMONT       CLOUDY    32  28  86 S15       29.95F WCI  22
GLENCOE        CLOUDY    33  32  98 SE9       29.96F FOG     WCI  25
FARIBAULT      CLOUDY    34  30  86 SE8       30.01F FOG     WCI  27
OWATONNA       CLOUDY    34  30  86 S12       30.00F FOG     WCI  25
WASECA         CLOUDY    32  30  93 SE12      30.00F FOG     WCI  23
ALBERT LEA     FOG       34  34 100 SE10      29.99F VSB 1   WCI  26
$$
MNZ078>079-086>088-094>096-211000-
   Southeast Minnesota

CITY           SKY/WX    TMP DP  RH WIND       PRES   REMARKS
ROCHESTER      CLOUDY    31  30  96 S12       30.04F FOG     WCI  22
RED WING       CLOUDY    34  28  80 SE7       30.04F FOG     WCI  28
STANTON        CLOUDY    33  31  90 S9        30.01F FOG     WCI  26
DODGE CENTER   CLOUDY    32  32 100 S15       30.01F FOG     WCI  22
WINONA         CLOUDY    34  32  93 SE6       30.09F FOG     WCI  29
AUSTIN         CLOUDY    32  30  93 SE7       30.01F FOG     WCI  26
PRESTON        FOG       30  30  99 S12       30.05F VSB 3/4 WCI  21
$$
ABBREVIATIONS USED IN REMARKS
   TC - TEMPERATURES IN CELSIUS
  WCI - WIND CHILL INDEX
   HX - HEAT INDEX
  VSB - VISIBILITY
$$



USA.gov is the U.S. government's official web portal to all federal, state and local government web resources and services.